COSMOS 1691 DEB, 17168

Orbit data source: Space-Track

COSMOS 1691 DEB, 17168 is space debris in LEO originally from a launch on Wed, 09 Oct 1985 UTC launched from the Plesetsk Missile And Space Complex (PKMTR). Debris objects in space refer to the collection of defunct objects orbiting the Earth. Examples of debris include non-operational satellites, rocket bodies, and fragments generated from explosions, collisions, or faulty payload assembly.

Loading next visibility...
Identifier
17168, 1985-094S
Orbit
LEO
Country
Flag of CISCIS
Related business
Manufacturer
Unknown
Mission
Spacecraft
Bus & Motor
Unknown
Mass
Unknown
Launch date (UTC)
1985-10-09 (41 years ago)
Launch vehicle
Unknown
Launch site
Plesetsk Missile And Space Complex (PKMTR)
Object type
Payload
Rocket body
Debris
Shape & HBR
Unknown shape, 0.1 m
Radar Cross Section
Small (<0.1 m²)

Expand to show TLE details & history
Last TLE update: 9 hours ago

TLE from 9 hours ago
0 COSMOS 1691 DEB
1 17168U 85094S   26127.14045088  .00001790  00000-0  47613-2 0  9997
2 17168  82.5484 192.7476 0065040 177.9933 210.3723 13.14229050898039
Epoch: 2026-05-07T03:22Z
TLE epoch observation values (Epoch: 2026-05-07T03:22:14.956Z)
Latitude
27.77326°
Longitude
-78.87571°
Altitude
1,252.821 km
Speed
7.211 km/s
True Right ascension
13h 06m 42s
True Declination
27° 38' 27"
Sunlit
Object was in full shadow at epoch
Visualization orbit readout
Latitude
Unknown
Longitude
Unknown
Altitude
Unknown
Speed
Unknown
Apparent Right ascension
Unknown
Apparent Declination
Unknown
Sunlit
N/A
Visualization observer readout
Local Sidereal Time
20:46:06
Azimuth
Unknown
Elevation
Unknown
Doppler factor
Unknown
Orbital elements
Apogee altitude
1,253.407 km
Perigee altitude
1,154.777 km
Semi-major axis
7,582.229 km
Eccentricity
0.0065
Inclination
82.5484°
RAAN
192.7476°
Arg. of periapsis
177.9933°
True anomaly
209.99809°
Mean anomaly
210.3723°
Eccentric anomaly
210.18493°
Mean motion
3.28736 °/min
Orbital period
109.51 mins
BSTAR
0.0047613
Loading maneuver chart data...
Computing Atmospheric mass density...
Loading historical data...
Loading historical data...
Loading historical data...
Loading historical data...
Loading historical data...
Loading historical data...
Loading historical data...

Documentation

Showing up to 5 results
|